Change the Weather History Date:

Saturday, May 19, 2012

  Actual Average Record
Temperature  
Mean Temperature 68 °F -  
Max Temperature 84 °F 60 °F 84 °F (2012)
Min Temperature 53 °F 35 °F 24 °F (2000)
Cooling Degree Days 4    
Growing Degree Days 18 (Base 50)    
Moisture  
Dew Point 52 °F    
Average Humidity 55    
Maximum Humidity 94    
Minimum Humidity 35    
Precipitation  
Precipitation 0.52 in - - ()
Sea Level Pressure  
Sea Level Pressure 29.78 in    
Wind  
Wind Speed 9 mph (SSW)    
Max Wind Speed 21 mph    
Max Gust Speed 30 mph    
Visibility 10 miles    
Events Rain , Thunderstorm    
Averages and records for this station are not official NWS values.
T = Trace of Precipitation, MM = Missing Value Source: NWS Daily Summary

Daily Weather History Graph

Daily Weather History Graph

Search for Another Location

Airport or City:

Trip Planner

Search our weather history database for the weather conditions in past years. The results will help you decide how hot, cold, wet, or windy it might be!

Date:

Astronomy

May. 19, 2012 Rise Set
Actual Time 5:23 AM CDT 8:44 PM CDT
Civil Twilight 4:46 AM CDT 9:22 PM CDT
Nautical Twilight 3:56 AM CDT 10:12 PM CDT
Astronomical Twilight 2:53 AM CDT 11:16 PM CDT
Moon 4:30 AM CDT (5/19) 7:47 PM CDT (5/19)
Length of Visible Light 16h 36m
Length of Day
15h 20m
Waning Crescent, 1% of the Moon is Illuminated
May 19
Waning Crescent
May 20
New
May 28
First Quarter
Jun 4
Full
Jun 11
Last Quarter

Hourly Weather History & Observations

Time (CDT) Temp. Heat Index Dew Point Humidity Pressure Visibility Wind Dir Wind Speed Gust Speed Precip Events Conditions
12:17 AM 66.2 °F - 50.0 °F 56% 29.75 in 10.0 mi SSE 4.6 mph - N/A   Unknown
12:21 AM 66.2 °F - 50.0 °F 56% 29.75 in 10.0 mi South 4.6 mph - N/A   Unknown
12:54 AM 68.0 °F - 48.2 °F 49% 29.75 in 10.0 mi South 8.1 mph - N/A   Unknown
1:09 AM 66.2 °F - 48.2 °F 52% 29.75 in 10.0 mi SSE 6.9 mph - N/A   Unknown
1:23 AM 66.2 °F - 48.2 °F 52% 29.74 in 10.0 mi South 9.2 mph - N/A   Unknown
1:41 AM 66.2 °F - 48.2 °F 52% 29.75 in 10.0 mi South 9.2 mph - N/A   Unknown
2:01 AM 66.2 °F - 50.0 °F 56% 29.75 in 10.0 mi South 8.1 mph - N/A   Unknown
2:21 AM 66.2 °F - 50.0 °F 56% 29.76 in 10.0 mi South 5.8 mph - N/A   Unknown
2:50 AM 64.4 °F - 50.0 °F 59% 29.76 in 10.0 mi South 6.9 mph - N/A   Unknown
3:16 AM 64.4 °F - 48.2 °F 56% 29.76 in 10.0 mi South 6.9 mph - N/A   Unknown
3:31 AM 64.4 °F - 48.2 °F 56% 29.76 in 10.0 mi South 8.1 mph - N/A   Unknown
3:53 AM 64.4 °F - 48.2 °F 56% 29.76 in 10.0 mi South 5.8 mph - N/A   Unknown
4:14 AM 64.4 °F - 48.2 °F 56% 29.76 in 10.0 mi South 8.1 mph - N/A   Unknown
4:29 AM 66.2 °F - 48.2 °F 52% 29.76 in 10.0 mi South 9.2 mph - N/A   Unknown
4:54 AM 64.4 °F - 48.2 °F 56% 29.76 in 10.0 mi South 6.9 mph - N/A   Unknown
5:01 AM 64.4 °F - 48.2 °F 56% 29.76 in 10.0 mi South 6.9 mph - N/A   Unknown
5:29 AM 64.4 °F - 48.2 °F 56% 29.77 in 10.0 mi South 5.8 mph - N/A   Unknown
5:50 AM 64.4 °F - 48.2 °F 56% 29.77 in 10.0 mi South 5.8 mph - N/A   Unknown
6:01 AM 66.2 °F - 48.2 °F 52% 29.78 in 10.0 mi South 5.8 mph - N/A   Unknown
6:21 AM 66.2 °F - 48.2 °F 52% 29.78 in 10.0 mi South 4.6 mph - N/A   Unknown
6:52 AM 66.2 °F - 48.2 °F 52% 29.79 in 10.0 mi South 5.8 mph - N/A   Unknown
7:09 AM 66.2 °F - 48.2 °F 52% 29.80 in 10.0 mi South 5.8 mph - N/A   Unknown
7:32 AM 66.2 °F - 48.2 °F 52% 29.79 in 10.0 mi South 8.1 mph - N/A   Unknown
7:57 AM 66.2 °F - 48.2 °F 52% 29.80 in 10.0 mi South 5.8 mph - N/A   Unknown
8:08 AM 68.0 °F - 48.2 °F 49% 29.80 in 10.0 mi South 8.1 mph - N/A   Unknown
8:30 AM 71.6 °F - 50.0 °F 46% 29.79 in 10.0 mi South 8.1 mph - N/A   Unknown
8:41 AM 71.6 °F - 51.8 °F 50% 29.79 in 10.0 mi South 9.2 mph 16.1 mph N/A   Unknown
9:01 AM 73.4 °F - 51.8 °F 47% 29.79 in 10.0 mi SSW 10.4 mph 17.3 mph N/A   Unknown
9:35 AM 73.4 °F - 51.8 °F 47% 29.78 in 10.0 mi South 16.1 mph - N/A   Unknown
9:50 AM 75.2 °F - 51.8 °F 44% 29.77 in 10.0 mi South 12.7 mph 20.7 mph N/A   Unknown
10:01 AM 75.2 °F - 53.6 °F 47% 29.77 in 10.0 mi SSW 13.8 mph 21.9 mph N/A   Unknown
10:21 AM 77.0 °F - 53.6 °F 44% 29.76 in 10.0 mi South 13.8 mph 20.7 mph N/A   Unknown
10:41 AM 78.8 °F - 53.6 °F 42% 29.75 in 10.0 mi South 15.0 mph 23.0 mph N/A   Unknown
11:01 AM 78.8 °F - 53.6 °F 42% 29.75 in 10.0 mi South 10.4 mph 18.4 mph N/A   Unknown
11:21 AM 78.8 °F - 53.6 °F 42% 29.74 in 10.0 mi SSE 12.7 mph 20.7 mph N/A   Unknown
11:41 AM 78.8 °F - 53.6 °F 42% 29.74 in 10.0 mi South 17.3 mph 23.0 mph N/A   Unknown
12:01 PM 78.8 °F - 53.6 °F 42% 29.75 in 10.0 mi South 17.3 mph 23.0 mph N/A   Unknown
12:21 PM 80.6 °F 80.3 °F 53.6 °F 39% 29.75 in 10.0 mi South 18.4 mph 24.2 mph N/A   Unknown
12:41 PM 80.6 °F 80.3 °F 53.6 °F 39% 29.75 in 10.0 mi South 18.4 mph 26.5 mph N/A   Unknown
1:12 PM 82.4 °F 81.4 °F 53.6 °F 37% 29.75 in 10.0 mi SSW 13.8 mph 25.3 mph N/A   Unknown
1:32 PM 82.4 °F 81.4 °F 53.6 °F 37% 29.74 in 10.0 mi South 16.1 mph 25.3 mph N/A   Unknown
1:53 PM 84.2 °F 82.8 °F 53.6 °F 35% 29.73 in 10.0 mi SSW 17.3 mph 25.3 mph N/A   Unknown
2:12 PM 82.4 °F 81.4 °F 53.6 °F 37% 29.73 in 10.0 mi South 18.4 mph 29.9 mph N/A   Unknown
2:18 PM 82.4 °F 81.4 °F 53.6 °F 37% 29.73 in 10.0 mi SSW 15.0 mph 26.5 mph N/A   Unknown
2:44 PM 82.4 °F 81.4 °F 53.6 °F 37% 29.74 in 10.0 mi South 15.0 mph 19.6 mph N/A   Unknown
3:01 PM 82.4 °F 81.4 °F 53.6 °F 37% 29.74 in 10.0 mi South 19.6 mph 27.6 mph N/A   Unknown
3:32 PM 71.6 °F - 60.8 °F 69% 29.76 in 10.0 mi SSW 10.4 mph - N/A Rain Light Rain
3:53 PM 73.4 °F - - N/A% 29.76 in - South 9.2 mph - N/A   Unknown
4:13 PM 77.0 °F - 59.0 °F 54% 29.76 in - South 8.1 mph - N/A   Unknown
4:32 PM 80.6 °F 81.1 °F 59.0 °F 48% 29.75 in 10.0 mi South 12.7 mph 19.6 mph N/A   Clear
4:53 PM 80.6 °F 80.8 °F 57.2 °F 45% 29.75 in 10.0 mi South 16.1 mph 23.0 mph N/A   Scattered Clouds
5:12 PM 80.6 °F 80.8 °F 57.2 °F 45% 29.74 in 10.0 mi SSW 11.5 mph 17.3 mph N/A   Scattered Clouds
5:33 PM 82.4 °F 81.7 °F 55.4 °F 39% 29.75 in 10.0 mi SSW 16.1 mph 24.2 mph N/A   Clear
5:52 PM 82.4 °F 81.7 °F 55.4 °F 39% 29.74 in 10.0 mi SSW 20.7 mph 27.6 mph N/A   Scattered Clouds
6:12 PM 82.4 °F 81.7 °F 55.4 °F 39% 29.74 in 10.0 mi SSW 13.8 mph 26.5 mph N/A   Clear
6:33 PM 80.6 °F 80.5 °F 55.4 °F 42% 29.75 in 10.0 mi SSW 12.7 mph 25.3 mph N/A   Clear
6:53 PM 80.6 °F 80.3 °F 53.6 °F 39% 29.74 in 10.0 mi SSW 12.7 mph 23.0 mph N/A   Scattered Clouds
7:12 PM 78.8 °F - 53.6 °F 42% 29.75 in 10.0 mi SW 9.2 mph 19.6 mph N/A   Scattered Clouds
7:33 PM 78.8 °F - 55.4 °F 44% 29.75 in 10.0 mi SSW 8.1 mph 16.1 mph N/A   Mostly Cloudy
7:52 PM 75.2 °F - 57.2 °F 53% 29.77 in 10.0 mi West 18.4 mph 24.2 mph N/A   Overcast
8:12 PM 64.4 °F - 57.2 °F 77% 29.82 in 10.0 mi West 12.7 mph 20.7 mph N/A Thunderstorm Overcast
8:33 PM 60.8 °F - 57.2 °F 88% 29.82 in 10.0 mi West 8.1 mph 18.4 mph 0.10 in Rain , Thunderstorm Thunderstorms and Rain
8:52 PM 59.0 °F - 55.4 °F 88% 29.83 in 10.0 mi West 3.5 mph - 0.10 in Thunderstorm Thunderstorm
9:12 PM 59.0 °F - 55.4 °F 88% 29.84 in 10.0 mi West 5.8 mph - N/A Thunderstorm Mostly Cloudy
9:33 PM 59.0 °F - 55.4 °F 88% 29.83 in 2.5 mi ENE 5.8 mph - 0.14 in Rain , Thunderstorm Heavy Thunderstorms and Rain
9:52 PM 57.2 °F - 55.4 °F 94% 29.89 in 7.0 mi WSW 6.9 mph - 0.15 in Rain , Thunderstorm Light Thunderstorms and Rain
10:12 PM 57.2 °F - 55.4 °F 94% 29.88 in 10.0 mi West 6.9 mph - N/A Thunderstorm Thunderstorm
10:32 PM 57.2 °F - 55.4 °F 94% 29.89 in 3.0 mi WNW 6.9 mph - 0.20 in Rain , Thunderstorm Heavy Thunderstorms and Rain
10:52 PM 55.4 °F - 53.6 °F 94% 29.90 in 10.0 mi NW 5.8 mph - 0.23 in Rain Light Rain
11:13 PM 53.6 °F - 51.8 °F 94% 29.88 in 10.0 mi NNW 6.9 mph - 0.02 in Rain , Thunderstorm Light Thunderstorms and Rain
11:32 PM 53.6 °F - 51.8 °F 94% 29.89 in 10.0 mi NW 4.6 mph - 0.04 in Rain , Thunderstorm Rain
11:52 PM 53.6 °F - 51.8 °F 94% 29.90 in 10.0 mi NW 6.9 mph - 0.04 in Thunderstorm Overcast